千帆星座-161(QIANFAN-161)

导读

QIANFAN-161(NORAD编号69120)是中国上海垣信卫星科技有限公司千帆星座(G60星链计划)中的一颗低轨通信卫星,作为中国低轨宽带卫星互联网建设的组成部分,依托千帆星座构建全球覆盖的低轨卫星网络,旨在提供全球通信与宽带互联网服务。 该卫星轨道倾角约88.993°,近地点约790.66公里,远地点约814.69公里,运行周期约100.93分钟,轨道高度约1080公里,轨道大气阻力小,轨道预测稳定性优于部分同类型低轨卫星,可支持全球范围的宽带通信服务。

Basic Information
目录编号:
69120
目录名称:
QIANFAN-161
国际标识:
2026-108S
轨道中心:
EARTH
卫星名称:
千帆星座-161
卫星全名:
千帆星座-161(QIANFAN-161)
卫星状态:
在轨 (已飞行117 天)
发射日期:
2026-05-17 UTC
国别 :
中国 (CN)
星等 :
--
This satellite is enrolled in the Space Conjunction Data Service (SCDS) and the current flight risk assessment level is: No High Risk
Orbit Information
数据来源 国际轨道数据 AOE轨道数据
星历时间 2026-09-11T14:17:41+0800
7小时前
查看轨道信息
2026-09-07T06:00:00+0800
4天前
查看轨道信息
半长轴 7446.583km 7446.588km
偏心率 0.0001835 0.0001869
轨道倾角 89.020° 89.019°
近地点辐角 102.170° 100.538°
升交点赤经 13.350° 13.781°
平近点角 257.966° 16.258°
近地点 1067.079km 1067.059km
远地点 1069.813km 1069.843km
周期 106.585分钟 106.585分钟
每日圈数 13.510371 13.510358
Detailed Information
卫星平台:
161
覆盖范围:
全球
运营商:
上海垣信卫星科技有限公司
运营商所在国:
中国
使用方式:
暂无
Satellite Introduction
千帆星座,也被称为“G60星链”计划,是中国版“星链”的重要组成部分,旨在打造一个由1.4万多颗低轨宽频多媒体卫星构成的庞大星座。千帆星座计划由上海垣信卫星科技有限公司负责实施,于2023年启动建设。该项目是我国第二个低轨卫星大星座,旨在通过构建庞大的卫星网络,为全球用户提供高质量的通信和宽带互联网服务。
2D Orbit Map
3D Orbit Map
Orbit Altitude Analysis Chart
Orbit Inclination Analysis Chart
Orbit Comprehensive Analysis Chart
View Comprehensive Chart
Miss Distance Evolution Trend with All Objects
Collision Probability Evolution Trend with All Objects